SCP
0 0 0 0 0 0 0 0 0 0 0 0 0 0 0 0 0 0 0 0 0 0 0 0 0 0 0 0 0 0 0 0 0 0 -0 0 0 0 0 0 0 0 0
0 0 0 0 0 0 0 0 0 0 0 0 0 0 0 0 0 0 0 0 0 0 0 0 0 0 0 0 0 0 0 0 0 0 0 0 0 0 0 0 0 0 0
0 0 0 0 0 0 0 0 0 0 0 0 0 0 0 0 0 0 0 0 0 0 0 0 0 0 0 0 0 0 0 0 0 0 0 0 0 0 0 0 0 0 0
0 0 0 0 0 0 0 0 0 0 0 0 0 0 0 0 0 0 0 0 0 0 0 0 0 0 0 0 0 0 0 0 0 0 0 0 0 0 0 0 0 0 0
0 0 0 0 0 0 0 0 0 0 0 0 0 0 0 0 0 0 0 0 0 0 0 0 0 0 0 0 0 0 0 0 0 0 0 0 0 0 0 0 0 0 0
0 0 0 0 0 0 0 0 0 0 0 0 0 0 0 0 0 0 0 0 0 0 0 0 0 0 0 0 0 0 0 0 0 0 0 0 0 0 0 0 0 0 0
0 0 0 0 0 0 0 0 0 0 0 0 0 0 0 0 0 0 0 0 0 0 0 0 0 0 0 0 0 0 0 0 0 0 0 0 0 0 0 0 0 0 0
0 0 0 0 0 0 0 0 0 0 0 0 0 0 0 0 0 0 0 0 0 0 0 0 0 0 0 0 0 0 0 0 0 0 0 0 0 0 0 0 0 0 0
0 0 0 0 0 0 0 0 0 0 0 0 0 0 0 0 0 0 0 0 0 0 0 0 0 0 0 0 0 0 0 0 0 0 0 0 0 0 0 0 0 0 0
0 0 0 0 0 0 0 0 0 0 0 0 0 0 0 0 0 0 0 0 0 0 0 0 0 0 0 0 0 0 0 0 0 0 0 0 0 0 0 0 0 0 0
0 0 0 0 0 0 0 0 0 0 0 0 0 0 0 0 0 0 0 0 0 0 0 0 0 0 0 0 0 0 0 0 0 0 0 0 0 0 0 0 0 0 0
0 0 0 0 0 0 0 0 0 0 0 0 0 0 0 0 0 0 0 0 0 0 0 0 0 0 0 0 0 0 0 0 0 0 0 0 0 0 0 0 0 0 0
0 0 0 0 0 0 0 0 0 0 0 0 0 0 0 0 0 0 0 0 0 0 0 0 0 0 0 0 0 0 0 0 0 0 0 0 0 0 0 0 0 0 0
0 0 0 0 0 0 0 0 0 0 0 0 0 0 0 0 0 0 0 0 0 0 0 0 0 0 0 0 0 0 0 0 0 0 0 0 0 0 0 0 0 0 0
0 0 0 0 0 0 0 0 0 0 0 0 0 0 0 0 0 0 0 0 0 0 0 0 0 0 0 0 0 0 0 0 0 0 0 0 0 0 0 0 0 0 0
0 0 0 0 0 0 0 0 0 0 0 0 0 0 0 0 0 0 0 0 0 0 0 0 0 0 0 0 0 0 0 0 0 0 0 0 0 0 0 0 0 0 0
0 0 0 0 0 0 0 0 0 0 0 0 0 0 0 0 0 0 0 0 0 0 0 0 0 0 0 0 0 0 0 0 0 0 0 0 0 0 0 0 0 0 0
0 0 0 0 0 0 0 0 0 0 0 0 0 0 0 0 0 0 0 0 0 0 0 0 0 0 0 0 0 0 0 0 0 0 0 0 0 0 0 0 0 0 0
0 0 0 0 0 0 0 0 0 0 0 0 0 0 0 0 0 0 0 0 0 0 0 0 0 0 0 0 0 0 0 0 0 0 0 0 0 0 0 0 0 0 0
0 0 0 0 0 0 0 0 0 0 0 0 0 0 0 0 0 0 0 0 0 0 0 0 0 0 0 0 0 0 0 0 0 0 0 0 0 0 0 0 0 0 0
0 0 0 0 0 0 0 0 0 0 0 0 0 0 0 0 0 0 0 0 0 0 0 0 0 0 0 0 0 0 0 0 0 0 0 0 0 0 0 0 0 0 0
0 0 0 0 0 0 0 0 0 0 0 0 0 0 0 0 0 0 0 0 0 0 0 0 0 0 0 0 0 0 0 0 0 0 0 0 0 0 0 0 0 0 0
0 0 0 0 0 0 0 0 0 0 0 0 0 0 0 0 0 0 0 0 0 0 0 0 0 0 0 0 0 0 0 0 0 0 0 0 0 0 0 0 0 0 0
0 0 0 0 0 0 0 0 0 0 0 0 0 0 0 0 0 0 0 0 0 0 0 0 0 0 0 0 0 0 0 0 0 0 0 0 0 0 0 0 0 0 0
0 0 0 0 0 0 0 0 0 0 0 0 0 0 0 0 0 0 0 0 0 0 0 0 0 0 0 0 0 0 0 0 0 0 0 0 0 0 0 0 0 0 0
0 0 0 0 0 0 0 0 0 0 0 0 0 0 0 0 0 0 0 0 0 0 0 0 0 0 0 0 0 0 -0 0 0 0 0 0 0 0 0 0 0 0 0
Wind_Speed_500mb
63 66 63 61 57 54 49 49 53 48 47 51 48 43 36 26 21 13 5 9 11 16 22 23 25 27 27 29 30 32 34 35 36 41 44 41 34 19 21 21 26 26 27
73 78 74 72 70 68 57 54 58 52 46 48 46 39 30 23 19 13 12 14 11 17 21 25 27 27 25 26 29 32 35 34 34 38 44 30 38 2 7 14 21 21 27
83 90 88 85 81 78 71 64 65 58 48 50 50 41 33 34 26 22 22 18 15 23 26 27 29 29 29 30 30 29 28 34 30 25 18 16 13 65 24 32 25 27 21
86 98 97 95 90 83 76 65 66 64 55 56 58 50 48 45 34 31 27 20 19 25 26 30 33 36 38 37 36 34 32 35 39 34 25 28 38 35 38 48 46 29 24
89 98 108 103 94 88 83 74 66 69 64 62 61 55 53 46 39 34 27 27 21 27 25 32 38 41 45 46 42 37 34 33 36 34 33 32 33 38 47 61 57 47 34
79 96 110 106 102 93 86 80 72 70 71 67 66 59 55 49 40 40 40 28 26 25 25 30 34 41 47 49 46 43 41 40 39 37 36 38 41 42 35 48 57 56 55
78 78 103 110 105 99 93 90 84 77 73 72 73 67 56 52 46 47 37 31 31 27 28 31 35 39 44 46 45 45 43 42 42 38 38 36 35 36 42 50 58 58 59
80 63 85 107 103 107 106 100 92 78 66 67 76 66 65 57 52 49 43 39 37 31 32 38 39 44 50 52 48 48 48 46 44 44 46 47 45 44 44 45 48 61 61
46 42 62 87 94 99 104 102 93 79 66 64 59 69 71 64 56 51 45 42 36 37 40 42 45 47 49 48 48 48 48 46 47 47 49 47 47 45 45 39 37 44 56
32 28 29 22 32 102 102 95 89 83 73 68 53 43 46 60 58 51 45 42 42 43 43 45 47 50 53 51 49 51 52 52 52 55 59 49 48 49 47 49 51 49 46
28 20 17 13 22 49 86 96 89 83 76 62 45 39 38 51 52 46 45 45 41 42 46 49 51 55 57 54 53 54 54 56 59 58 65 54 46 52 54 55 56 57 58
29 29 22 15 12 32 74 90 81 76 64 48 35 33 37 42 43 42 42 40 43 47 50 52 56 57 58 57 57 58 57 59 63 66 68 61 56 54 54 52 48 52 52
46 43 34 25 26 51 66 62 59 51 46 39 31 36 38 40 42 42 41 44 50 52 54 56 59 61 61 60 60 61 62 66 71 74 69 62 59 60 58 55 51 46 47
53 23 39 43 40 44 54 46 43 43 38 35 36 38 39 40 40 42 46 50 53 58 60 61 63 64 65 65 65 66 68 75 78 79 64 61 62 63 65 64 62 55 50
28 46 28 18 28 46 44 39 38 40 48 53 52 51 46 44 43 45 49 51 57 62 62 64 67 68 71 73 74 75 81 85 87 74 64 64 64 66 68 67 66 64 63
18 30 35 16 18 39 50 53 52 52 48 60 60 51 47 46 45 44 44 55 60 61 64 68 73 79 82 80 78 80 81 79 75 76 78 78 77 78 76 74 75 74 74
16 24 28 28 29 35 69 53 52 52 60 66 66 60 54 49 45 43 46 53 57 61 68 75 81 84 85 84 83 72 68 69 73 74 78 79 79 77 77 74 74 76 81
17 13 37 22 8 17 41 18 4 42 54 62 58 51 46 40 39 41 49 55 64 72 77 79 82 87 85 80 73 67 66 71 75 77 76 78 78 77 77 80 75 81 83
21 17 20 8 7 11 31 18 17 8 46 50 45 42 39 40 43 47 56 65 70 76 77 79 78 74 72 64 55 52 54 61 67 68 70 70 72 73 68 65 74 84 91
14 12 8 8 11 10 7 11 7 20 31 35 41 38 37 39 45 53 61 66 70 74 73 69 67 65 65 59 54 55 59 68 74 79 83 81 81 78 73 72 76 82 85
7 7 9 13 16 19 16 6 17 28 34 37 33 29 37 42 50 57 60 63 67 64 64 65 62 61 60 62 66 68 83 89 92 94 96 91 86 85 90 93 97 103 94
13 9 12 20 20 22 23 13 18 29 34 34 32 37 42 50 52 53 56 54 54 57 56 58 67 77 82 84 87 81 70 65 70 77 78 80 81 87 89 87 92 91 90
15 14 18 24 26 25 18 16 30 36 36 34 38 40 46 45 46 45 43 48 47 45 54 67 73 84 85 88 84 73 70 75 80 82 87 89 92 94 95 93 92 90 86
12 21 29 35 32 20 16 24 33 35 33 37 37 43 40 37 32 32 39 40 46 54 55 64 76 84 86 85 79 79 83 84 84 85 87 91 98 99 97 94 92 89 87
21 24 29 34 39 20 34 36 36 34 34 37 34 27 25 23 28 30 35 44 43 52 61 63 72 76 78 77 74 75 78 73 75 74 80 87 86 86 83 80 78 74 78
17 21 28 27 35 31 38 44 39 35 34 27 19 20 22 21 23 34 42 40 47 45 52 50 48 55 58 64 63 61 59 60 60 63 73 76 72 75 76 76 74 74 69
Wind_Direction_500mb
184 182 185 188 189 195 199 202 200 205 194 187 187 182 187 196 201 218 243 281 323 344 351 350 347 342 335 333 329 324 325 327 328 321 312 312 316 322 306 319 307 275 289
185 179 184 189 195 195 201 205 205 210 199 192 192 190 198 196 218 231 257 270 303 330 343 348 352 349 342 334 328 329 328 329 331 326 326 335 342 322 279 306 327 326 293
187 182 184 190 193 195 200 206 208 211 202 193 195 190 192 200 216 232 250 261 302 323 340 339 345 351 348 340 333 325 319 320 326 327 321 335 305 314 320 311 319 327 306
197 188 188 191 194 199 201 206 209 211 206 198 203 204 205 209 219 227 235 270 306 315 314 329 334 346 345 338 329 323 317 309 312 312 299 264 281 314 320 308 317 327 337
201 193 193 196 199 201 203 206 209 214 209 206 205 204 205 213 221 223 240 264 275 294 311 321 334 335 334 332 326 319 313 310 309 309 304 291 280 275 288 307 307 305 304
202 200 197 197 197 201 204 206 211 213 214 209 212 213 216 211 209 221 238 252 274 285 300 312 314 316 321 323 318 317 316 312 311 311 304 295 292 292 293 296 300 304 305
199 194 191 190 196 200 205 209 210 211 211 208 214 219 212 210 217 232 244 259 271 278 282 299 297 301 311 316 314 311 309 309 309 309 307 300 294 289 282 285 290 300 296
195 191 195 195 202 207 205 205 206 209 209 212 213 211 222 220 220 233 247 259 267 279 286 291 298 309 317 318 315 311 309 307 307 306 302 294 290 290 288 289 295 299 300
134 130 180 197 194 196 205 205 205 206 209 217 214 219 225 228 233 242 249 257 270 280 288 294 303 308 310 311 309 307 306 304 305 306 304 293 288 288 284 278 281 294 300
121 129 136 125 184 201 205 206 206 206 206 213 211 220 233 228 229 240 253 263 273 282 289 294 297 305 311 312 310 307 307 304 303 304 305 292 286 285 280 276 273 271 280
124 137 130 136 112 187 202 201 200 201 201 209 212 223 234 220 229 241 250 260 271 285 291 295 302 308 312 312 307 304 301 296 297 299 299 296 287 281 278 276 275 272 267
164 146 155 165 124 172 194 194 194 198 197 203 220 227 221 228 239 248 258 275 286 290 295 297 300 305 307 307 304 301 297 291 291 294 292 286 290 286 286 280 276 271 268
150 152 157 157 149 164 172 175 185 187 194 201 217 223 231 241 249 258 269 277 283 288 297 299 300 303 305 305 303 300 296 290 290 293 291 276 277 280 282 281 280 275 273
54 100 156 159 162 159 166 174 183 184 191 213 223 233 239 248 256 263 267 276 288 295 295 295 299 303 303 301 300 297 292 290 289 292 285 276 274 273 274 275 280 275 275
50 37 37 100 162 182 188 185 190 200 207 210 222 229 238 243 246 253 261 277 286 288 296 298 299 301 302 301 300 297 293 289 288 285 281 276 272 272 273 272 270 266 270
32 25 6 42 91 33 207 199 201 206 206 208 216 219 220 226 238 249 262 281 291 293 292 295 298 298 298 298 297 294 288 285 284 281 273 269 268 268 267 264 265 261 261
250 279 342 351 97 60 15 211 206 211 210 210 213 218 225 226 233 251 275 283 281 282 286 290 293 294 295 297 298 299 292 285 286 286 285 281 276 273 269 267 266 263 259
69 189 244 336 342 325 337 357 194 212 208 199 198 204 212 221 240 263 275 274 276 284 289 293 294 295 297 299 301 303 298 289 288 286 284 280 277 274 269 269 269 262 261
42 78 92 112 176 243 270 336 3 201 200 186 193 207 216 235 253 267 274 279 284 289 292 295 297 300 302 309 314 310 302 295 292 290 288 285 281 277 274 272 264 261 262
336 20 3 315 295 308 308 280 254 230 192 191 208 215 233 256 271 278 282 285 290 293 296 301 307 310 311 316 310 302 296 292 292 291 288 285 282 281 278 273 268 267 266
347 293 16 7 320 302 319 318 218 205 202 210 221 236 258 272 278 283 288 291 294 299 308 308 310 312 307 300 295 291 287 289 290 285 282 280 278 277 276 273 269 266 269
349 351 344 320 316 304 290 259 227 215 218 226 243 261 275 283 288 289 290 293 302 305 309 310 303 301 305 312 313 308 302 296 292 288 287 285 284 284 279 273 268 264 258
348 349 336 328 324 322 292 238 217 228 234 243 255 269 283 284 287 292 297 301 304 305 301 302 306 310 315 314 312 314 313 309 306 301 298 295 291 288 282 276 272 269 257
308 315 306 314 328 322 262 229 223 233 245 254 266 280 281 288 293 298 302 301 301 302 304 307 309 312 312 312 317 314 311 307 303 301 301 295 292 290 288 283 277 269 257
289 320 305 303 307 284 239 228 235 245 253 264 275 279 285 286 290 293 289 295 294 300 305 306 309 307 309 313 311 309 307 305 303 304 295 296 297 292 288 284 278 269 255
259 272 281 296 303 212 220 230 244 254 265 260 260 271 278 292 284 285 291 291 303 316 310 311 307 306 308 314 313 312 309 316 322 313 308 307 304 299 295 288 280 272 252
Wind_Speed_850mb
63 66 63 61 57 54 49 49 53 48 47 51 48 43 36 26 21 13 5 9 11 16 22 23 25 27 27 29 30 32 34 35 36 41 44 41 34 19 21 21 26 26 27
73 78 74 72 70 68 57 54 58 52 46 48 46 39 30 23 19 13 12 14 11 17 21 25 27 27 25 26 29 32 35 34 34 38 44 30 38 2 7 14 21 21 27
83 90 88 85 81 78 71 64 65 58 48 50 50 41 33 34 26 22 22 18 15 23 26 27 29 29 29 30 30 29 28 34 30 25 18 16 13 65 24 32 25 27 21
86 98 97 95 90 83 76 65 66 64 55 56 58 50 48 45 34 31 27 20 19 25 26 30 33 36 38 37 36 34 32 35 39 34 25 28 38 35 38 48 46 29 24
89 98 108 103 94 88 83 74 66 69 64 62 61 55 53 46 39 34 27 27 21 27 25 32 38 41 45 46 42 37 34 33 36 34 33 32 33 38 47 61 57 47 34
79 96 110 106 102 93 86 80 72 70 71 67 66 59 55 49 40 40 40 28 26 25 25 30 34 41 47 49 46 43 41 40 39 37 36 38 41 42 35 48 57 56 55
78 78 103 110 105 99 93 90 84 77 73 72 73 67 56 52 46 47 37 31 31 27 28 31 35 39 44 46 45 45 43 42 42 38 38 36 35 36 42 50 58 58 59
80 63 85 107 103 107 106 100 92 78 66 67 76 66 65 57 52 49 43 39 37 31 32 38 39 44 50 52 48 48 48 46 44 44 46 47 45 44 44 45 48 61 61
46 42 62 87 94 99 104 102 93 79 66 64 59 69 71 64 56 51 45 42 36 37 40 42 45 47 49 48 48 48 48 46 47 47 49 47 47 45 45 39 37 44 56
32 28 29 22 32 102 102 95 89 83 73 68 53 43 46 60 58 51 45 42 42 43 43 45 47 50 53 51 49 51 52 52 52 55 59 49 48 49 47 49 51 49 46
28 20 17 13 22 49 86 96 89 83 76 62 45 39 38 51 52 46 45 45 41 42 46 49 51 55 57 54 53 54 54 56 59 58 65 54 46 52 54 55 56 57 58
29 29 22 15 12 32 74 90 81 76 64 48 35 33 37 42 43 42 42 40 43 47 50 52 56 57 58 57 57 58 57 59 63 66 68 61 56 54 54 52 48 52 52
46 43 34 25 26 51 66 62 59 51 46 39 31 36 38 40 42 42 41 44 50 52 54 56 59 61 61 60 60 61 62 66 71 74 69 62 59 60 58 55 51 46 47
53 23 39 43 40 44 54 46 43 43 38 35 36 38 39 40 40 42 46 50 53 58 60 61 63 64 65 65 65 66 68 75 78 79 64 61 62 63 65 64 62 55 50
28 46 28 18 28 46 44 39 38 40 48 53 52 51 46 44 43 45 49 51 57 62 62 64 67 68 71 73 74 75 81 85 87 74 64 64 64 66 68 67 66 64 63
18 30 35 16 18 39 50 53 52 52 48 60 60 51 47 46 45 44 44 55 60 61 64 68 73 79 82 80 78 80 81 79 75 76 78 78 77 78 76 74 75 74 74
16 24 28 28 29 35 69 53 52 52 60 66 66 60 54 49 45 43 46 53 57 61 68 75 81 84 85 84 83 72 68 69 73 74 78 79 79 77 77 74 74 76 81
17 13 37 22 8 17 41 18 4 42 54 62 58 51 46 40 39 41 49 55 64 72 77 79 82 87 85 80 73 67 66 71 75 77 76 78 78 77 77 80 75 81 83
21 17 20 8 7 11 31 18 17 8 46 50 45 42 39 40 43 47 56 65 70 76 77 79 78 74 72 64 55 52 54 61 67 68 70 70 72 73 68 65 74 84 91
14 12 8 8 11 10 7 11 7 20 31 35 41 38 37 39 45 53 61 66 70 74 73 69 67 65 65 59 54 55 59 68 74 79 83 81 81 78 73 72 76 82 85
7 7 9 13 16 19 16 6 17 28 34 37 33 29 37 42 50 57 60 63 67 64 64 65 62 61 60 62 66 68 83 89 92 94 96 91 86 85 90 93 97 103 94
13 9 12 20 20 22 23 13 18 29 34 34 32 37 42 50 52 53 56 54 54 57 56 58 67 77 82 84 87 81 70 65 70 77 78 80 81 87 89 87 92 91 90
15 14 18 24 26 25 18 16 30 36 36 34 38 40 46 45 46 45 43 48 47 45 54 67 73 84 85 88 84 73 70 75 80 82 87 89 92 94 95 93 92 90 86
12 21 29 35 32 20 16 24 33 35 33 37 37 43 40 37 32 32 39 40 46 54 55 64 76 84 86 85 79 79 83 84 84 85 87 91 98 99 97 94 92 89 87
21 24 29 34 39 20 34 36 36 34 34 37 34 27 25 23 28 30 35 44 43 52 61 63 72 76 78 77 74 75 78 73 75 74 80 87 86 86 83 80 78 74 78
17 21 28 27 35 31 38 44 39 35 34 27 19 20 22 21 23 34 42 40 47 45 52 50 48 55 58 64 63 61 59 60 60 63 73 76 72 75 76 76 74 74 69
Wind_Direction_850mb
184 182 185 188 189 195 199 202 200 205 194 187 187 182 187 196 201 218 243 281 323 344 351 350 347 342 335 333 329 324 325 327 328 321 312 312 316 322 306 319 307 275 289
185 179 184 189 195 195 201 205 205 210 199 192 192 190 198 196 218 231 257 270 303 330 343 348 352 349 342 334 328 329 328 329 331 326 326 335 342 322 279 306 327 326 293
187 182 184 190 193 195 200 206 208 211 202 193 195 190 192 200 216 232 250 261 302 323 340 339 345 351 348 340 333 325 319 320 326 327 321 335 305 314 320 311 319 327 306
197 188 188 191 194 199 201 206 209 211 206 198 203 204 205 209 219 227 235 270 306 315 314 329 334 346 345 338 329 323 317 309 312 312 299 264 281 314 320 308 317 327 337
201 193 193 196 199 201 203 206 209 214 209 206 205 204 205 213 221 223 240 264 275 294 311 321 334 335 334 332 326 319 313 310 309 309 304 291 280 275 288 307 307 305 304
202 200 197 197 197 201 204 206 211 213 214 209 212 213 216 211 209 221 238 252 274 285 300 312 314 316 321 323 318 317 316 312 311 311 304 295 292 292 293 296 300 304 305
199 194 191 190 196 200 205 209 210 211 211 208 214 219 212 210 217 232 244 259 271 278 282 299 297 301 311 316 314 311 309 309 309 309 307 300 294 289 282 285 290 300 296
195 191 195 195 202 207 205 205 206 209 209 212 213 211 222 220 220 233 247 259 267 279 286 291 298 309 317 318 315 311 309 307 307 306 302 294 290 290 288 289 295 299 300
134 130 180 197 194 196 205 205 205 206 209 217 214 219 225 228 233 242 249 257 270 280 288 294 303 308 310 311 309 307 306 304 305 306 304 293 288 288 284 278 281 294 300
121 129 136 125 184 201 205 206 206 206 206 213 211 220 233 228 229 240 253 263 273 282 289 294 297 305 311 312 310 307 307 304 303 304 305 292 286 285 280 276 273 271 280
124 137 130 136 112 187 202 201 200 201 201 209 212 223 234 220 229 241 250 260 271 285 291 295 302 308 312 312 307 304 301 296 297 299 299 296 287 281 278 276 275 272 267
164 146 155 165 124 172 194 194 194 198 197 203 220 227 221 228 239 248 258 275 286 290 295 297 300 305 307 307 304 301 297 291 291 294 292 286 290 286 286 280 276 271 268
150 152 157 157 149 164 172 175 185 187 194 201 217 223 231 241 249 258 269 277 283 288 297 299 300 303 305 305 303 300 296 290 290 293 291 276 277 280 282 281 280 275 273
54 100 156 159 162 159 166 174 183 184 191 213 223 233 239 248 256 263 267 276 288 295 295 295 299 303 303 301 300 297 292 290 289 292 285 276 274 273 274 275 280 275 275
50 37 37 100 162 182 188 185 190 200 207 210 222 229 238 243 246 253 261 277 286 288 296 298 299 301 302 301 300 297 293 289 288 285 281 276 272 272 273 272 270 266 270
32 25 6 42 91 33 207 199 201 206 206 208 216 219 220 226 238 249 262 281 291 293 292 295 298 298 298 298 297 294 288 285 284 281 273 269 268 268 267 264 265 261 261
250 279 342 351 97 60 15 211 206 211 210 210 213 218 225 226 233 251 275 283 281 282 286 290 293 294 295 297 298 299 292 285 286 286 285 281 276 273 269 267 266 263 259
69 189 244 336 342 325 337 357 194 212 208 199 198 204 212 221 240 263 275 274 276 284 289 293 294 295 297 299 301 303 298 289 288 286 284 280 277 274 269 269 269 262 261
42 78 92 112 176 243 270 336 3 201 200 186 193 207 216 235 253 267 274 279 284 289 292 295 297 300 302 309 314 310 302 295 292 290 288 285 281 277 274 272 264 261 262
336 20 3 315 295 308 308 280 254 230 192 191 208 215 233 256 271 278 282 285 290 293 296 301 307 310 311 316 310 302 296 292 292 291 288 285 282 281 278 273 268 267 266
347 293 16 7 320 302 319 318 218 205 202 210 221 236 258 272 278 283 288 291 294 299 308 308 310 312 307 300 295 291 287 289 290 285 282 280 278 277 276 273 269 266 269
349 351 344 320 316 304 290 259 227 215 218 226 243 261 275 283 288 289 290 293 302 305 309 310 303 301 305 312 313 308 302 296 292 288 287 285 284 284 279 273 268 264 258
348 349 336 328 324 322 292 238 217 228 234 243 255 269 283 284 287 292 297 301 304 305 301 302 306 310 315 314 312 314 313 309 306 301 298 295 291 288 282 276 272 269 257
308 315 306 314 328 322 262 229 223 233 245 254 266 280 281 288 293 298 302 301 301 302 304 307 309 312 312 312 317 314 311 307 303 301 301 295 292 290 288 283 277 269 257
289 320 305 303 307 284 239 228 235 245 253 264 275 279 285 286 290 293 289 295 294 300 305 306 309 307 309 313 311 309 307 305 303 304 295 296 297 292 288 284 278 269 255
259 272 281 296 303 212 220 230 244 254 265 260 260 271 278 292 284 285 291 291 303 316 310 311 307 306 308 314 313 312 309 316 322 313 308 307 304 299 295 288 280 272 252